Terminal Aerodrome Forecast
Issued by NWS Tulsa, OK

Home | Current Version | Previous Version | Text Only | Print | Product List | Glossary On
Versions: 1 2 3 4 5 6 7 8 9 10 11 12 13 14 15 16 17
000
FTUS44 KTSA 300117 AAB
TAFTUL
TAF AMD
KTUL 300117Z 3001/3024 09014G30KT P6SM VCTS FEW009 BKN050CB
     FM300300 02007KT P6SM OVC015
     FM300900 28007KT P6SM OVC015
     FM301700 29009KT P6SM SCT025 SCT250=

USA.gov is the U.S. government's official web portal to all federal, state and local government web resources and services.